| time (UTC) | temp C | wind direction | speed KPH | gust KPH | rain 1hr cm | rain 24hr cm | rain mn cm | humidity % | barometer mb |
| 20260505130112 | 17 | 197 | 1.6 | 1.6 | 0.00 | 0.00 | 0.00 | 67 | 1017.9 |
| 20260505124601 | 17 | 219 | 1.6 | 1.6 | 0.00 | 0.00 | 0.00 | 69 | 1018.0 |
| 20260505124057 | 17 | 227 | 1.6 | 1.6 | 0.00 | 0.00 | 0.00 | 70 | 1017.8 |
| 20260505123554 | 16 | 212 | 3.2 | 3.2 | 0.00 | 0.00 | 0.00 | 70 | 1017.8 |
| 20260505123050 | 16 | 249 | 1.6 | 1.6 | 0.00 | 0.00 | 0.00 | 71 | 1017.9 |
| 20260505122547 | 16 | 188 | 1.6 | 1.6 | 0.00 | 0.00 | 0.00 | 71 | 1017.9 |
| 20260505122044 | 16 | 194 | 1.6 | 1.6 | 0.00 | 0.00 | 0.00 | 71 | 1017.8 |
| 20260505121541 | 16 | 208 | 1.6 | 1.6 | 0.00 | 0.00 | 0.00 | 72 | 1017.9 |
| 20260505121038 | 16 | 208 | 0.0 | 0.0 | 0.00 | 0.00 | 0.00 | 73 | 1017.7 |
| 20260505120534 | 16 | 211 | 1.6 | 1.6 | 0.00 | 0.00 | 0.00 | 74 | 1017.8 |
| 20260505120029 | 15 | 211 | 3.2 | 3.2 | 0.00 | 0.00 | 0.00 | 75 | 1017.5 |
| 20260505115524 | 15 | 211 | 0.0 | 0.0 | 0.00 | 0.00 | 0.00 | 75 | 1017.6 |
| 20260505115022 | 15 | 211 | 0.0 | 1.6 | 0.00 | 0.00 | 0.00 | 75 | 1017.6 |
| 20260505114519 | 15 | 211 | 0.0 | 0.0 | 0.00 | 0.00 | 0.00 | 76 | 1017.8 |
| 20260505114015 | 15 | 211 | 1.6 | 1.6 | 0.00 | 0.00 | 0.00 | 76 | 1017.7 |
| 20260505113512 | 15 | 211 | 1.6 | 1.6 | 0.00 | 0.00 | 0.00 | 77 | 1017.8 |
| 20260505113009 | 14 | 211 | 1.6 | 1.6 | 0.00 | 0.00 | 0.00 | 78 | 1017.7 |
| 20260505112505 | 13 | 211 | 1.6 | 1.6 | 0.00 | 0.00 | 0.00 | 79 | 1017.4 |
| 20260505112003 | 13 | 211 | 0.0 | 0.0 | 0.00 | 0.00 | 0.00 | 80 | 1017.5 |
| 20260505111502 | 13 | 211 | 0.0 | 0.0 | 0.00 | 0.00 | 0.00 | 81 | 1017.5 |
| 20260505110958 | 13 | 211 | 0.0 | 0.0 | 0.00 | 0.00 | 0.00 | 81 | 1017.5 |
| 20260505110455 | 13 | 211 | 0.0 | 0.0 | 0.00 | 0.00 | 0.00 | 81 | 1017.4 |
| 20260505101927 | 13 | 211 | 1.6 | 1.6 | 0.00 | 0.00 | 0.00 | 77 | 1017.1 |
| 20260505101427 | 14 | 211 | 0.0 | 0.0 | 0.00 | 0.00 | 0.00 | 76 | 1017.0 |
| 20260505100922 | 14 | 211 | 1.6 | 1.6 | 0.00 | 0.00 | 0.00 | 76 | 1017.0 |
| 20260505100420 | 14 | 211 | 0.0 | 0.0 | 0.00 | 0.00 | 0.00 | 76 | 1017.0 |
| 20260505095915 | 14 | 210 | 1.6 | 1.6 | 0.00 | 0.00 | 0.00 | 76 | 1016.7 |
| 20260505095413 | 14 | 210 | 0.0 | 0.0 | 0.00 | 0.00 | 0.00 | 75 | 1016.5 |
| 20260505094909 | 14 | 210 | 0.0 | 0.0 | 0.00 | 0.00 | 0.00 | 75 | 1016.7 |
| 20260505094406 | 14 | 210 | 0.0 | 1.6 | 0.00 | 0.00 | 0.00 | 75 | 1016.7 |
| 20260505093901 | 14 | 210 | 0.0 | 0.0 | 0.00 | 0.00 | 0.00 | 75 | 1016.8 |
| 20260505093359 | 14 | 210 | 0.0 | 1.6 | 0.00 | 0.00 | 0.00 | 75 | 1016.7 |
| 20260505092856 | 14 | 210 | 0.0 | 0.0 | 0.00 | 0.00 | 0.00 | 75 | 1016.6 |
| 20260505092354 | 14 | 210 | 1.6 | 1.6 | 0.00 | 0.00 | 0.00 | 75 | 1016.8 |
| 20260505091851 | 14 | 210 | 0.0 | 0.0 | 0.00 | 0.00 | 0.00 | 75 | 1016.7 |
| 20260505091349 | 14 | 210 | 0.0 | 0.0 | 0.00 | 0.00 | 0.00 | 74 | 1016.6 |
| 20260505090847 | 14 | 210 | 1.6 | 1.6 | 0.00 | 0.00 | 0.00 | 74 | 1016.5 |
| 20260505090345 | 14 | 210 | 1.6 | 1.6 | 0.00 | 0.00 | 0.00 | 74 | 1016.7 |
| 20260505085841 | 14 | 209 | 1.6 | 1.6 | 0.00 | 0.00 | 0.00 | 74 | 1016.6 |
| 20260505085340 | 14 | 207 | 1.6 | 1.6 | 0.00 | 0.00 | 0.00 | 74 | 1016.7 |
| 20260505084837 | 14 | 207 | 0.0 | 1.6 | 0.00 | 0.00 | 0.00 | 74 | 1016.7 |
| 20260505084335 | 14 | 206 | 0.0 | 0.0 | 0.00 | 0.00 | 0.00 | 74 | 1016.7 |
| 20260505083832 | 14 | 207 | 1.6 | 1.6 | 0.00 | 0.00 | 0.00 | 74 | 1016.7 |
| 20260505083330 | 14 | 206 | 0.0 | 0.0 | 0.00 | 0.00 | 0.00 | 73 | 1016.5 |
| 20260505082826 | 14 | 206 | 0.0 | 1.6 | 0.00 | 0.00 | 0.00 | 73 | 1016.3 |
| 20260505082322 | 14 | 207 | 0.0 | 0.0 | 0.00 | 0.00 | 0.00 | 72 | 1016.4 |
| 20260505081819 | 15 | 206 | 0.0 | 0.0 | 0.00 | 0.00 | 0.00 | 71 | 1016.6 |
| 20260505081316 | 15 | 206 | 0.0 | 0.0 | 0.00 | 0.00 | 0.00 | 71 | 1016.6 |
| 20260505080812 | 15 | 206 | 0.0 | 0.0 | 0.00 | 0.00 | 0.00 | 70 | 1016.4 |
| 20260505080308 | 15 | 206 | 1.6 | 1.6 | 0.00 | 0.00 | 0.00 | 70 | 1016.3 |
| 20260505075804 | 15 | 206 | 0.0 | 0.0 | 0.00 | 0.00 | 0.00 | 70 | 1016.3 |
| 20260505075304 | 15 | 206 | 3.2 | 3.2 | 0.00 | 0.00 | 0.00 | 69 | 1016.2 |
| 20260505074758 | 15 | 206 | 1.6 | 1.6 | 0.00 | 0.00 | 0.00 | 69 | 1016.1 |
| 20260505074256 | 15 | 206 | 1.6 | 1.6 | 0.00 | 0.00 | 0.00 | 69 | 1016.2 |
| 20260505073753 | 15 | 202 | 1.6 | 1.6 | 0.00 | 0.00 | 0.00 | 68 | 1016.2 |
| 20260505073251 | 15 | 202 | 1.6 | 1.6 | 0.00 | 0.00 | 0.00 | 68 | 1016.2 |
| 20260505072747 | 15 | 206 | 1.6 | 1.6 | 0.00 | 0.00 | 0.00 | 68 | 1016.2 |
| 20260505072243 | 15 | 212 | 1.6 | 1.6 | 0.00 | 0.00 | 0.00 | 68 | 1016.3 |
| 20260505071739 | 15 | 214 | 0.0 | 0.0 | 0.00 | 0.00 | 0.00 | 68 | 1016.2 |
| 20260505071236 | 15 | 214 | 1.6 | 1.6 | 0.00 | 0.00 | 0.00 | 68 | 1016.2 |
| 20260505070734 | 15 | 216 | 1.6 | 1.6 | 0.00 | 0.00 | 0.00 | 67 | 1016.1 |
| 20260505070230 | 15 | 216 | 3.2 | 3.2 | 0.00 | 0.00 | 0.00 | 67 | 1016.2 |
| 20260505065726 | 15 | 218 | 0.0 | 1.6 | 0.00 | 0.00 | 0.00 | 66 | 1016.3 |
| 20260505065223 | 15 | 221 | 1.6 | 1.6 | 0.00 | 0.00 | 0.00 | 66 | 1016.2 |
| 20260505064720 | 15 | 200 | 1.6 | 1.6 | 0.00 | 0.00 | 0.00 | 65 | 1016.3 |
| 20260505064218 | 15 | 198 | 0.0 | 0.0 | 0.00 | 0.00 | 0.00 | 65 | 1016.2 |
| 20260505063715 | 15 | 198 | 1.6 | 0.0 | 0.00 | 0.00 | 0.00 | 65 | 1016.1 |
| 20260505063211 | 15 | 191 | 1.6 | 1.6 | 0.00 | 0.00 | 0.00 | 65 | 1016.2 |
| 20260505062707 | 15 | 205 | 0.0 | 0.0 | 0.00 | 0.00 | 0.00 | 64 | 1016.3 |
| 20260505062206 | 15 | 205 | 1.6 | 1.6 | 0.00 | 0.00 | 0.00 | 65 | 1016.5 |
| 20260505061702 | 15 | 205 | 1.6 | 1.6 | 0.00 | 0.00 | 0.00 | 64 | 1016.4 |
| 20260505061200 | 15 | 205 | 0.0 | 0.0 | 0.00 | 0.00 | 0.00 | 64 | 1016.5 |
| 20260505060657 | 16 | 205 | 1.6 | 3.2 | 0.00 | 0.00 | 0.00 | 63 | 1016.6 |
| 20260505060154 | 16 | 205 | 0.0 | 0.0 | 0.00 | 0.00 | 0.00 | 63 | 1016.5 |
| 20260505055649 | 16 | 204 | 0.0 | 0.0 | 0.00 | 0.00 | 0.00 | 63 | 1016.6 |
| 20260505055146 | 16 | 193 | 0.0 | 0.0 | 0.00 | 0.00 | 0.00 | 63 | 1016.8 |
| 20260505054643 | 16 | 189 | 0.0 | 0.0 | 0.00 | 0.00 | 0.00 | 63 | 1016.7 |
| 20260505054141 | 16 | 188 | 0.0 | 0.0 | 0.00 | 0.00 | 0.00 | 62 | 1016.5 |
| 20260505053639 | 16 | 188 | 0.0 | 0.0 | 0.00 | 0.00 | 0.00 | 62 | 1016.6 |
| 20260505053135 | 16 | 188 | 0.0 | 0.0 | 0.00 | 0.00 | 0.00 | 62 | 1016.8 |
| 20260505052632 | 16 | 186 | 1.6 | 1.6 | 0.00 | 0.00 | 0.00 | 61 | 1016.7 |
| 20260505052129 | 16 | 186 | 0.0 | 0.0 | 0.00 | 0.00 | 0.00 | 61 | 1016.8 |
| 20260505051626 | 16 | 191 | 1.6 | 1.6 | 0.00 | 0.00 | 0.00 | 61 | 1016.8 |
| 20260505051124 | 16 | 183 | 1.6 | 1.6 | 0.00 | 0.00 | 0.00 | 60 | 1016.8 |
| 20260505050621 | 16 | 194 | 1.6 | 1.6 | 0.00 | 0.00 | 0.00 | 60 | 1016.8 |
| 20260505050120 | 16 | 201 | 1.6 | 1.6 | 0.00 | 0.00 | 0.00 | 60 | 1016.9 |
| 20260505041549 | 17 | 183 | 1.6 | 1.6 | 0.00 | 0.00 | 0.00 | 58 | 1017.1 |
| 20260505041047 | 17 | 182 | 1.6 | 0.0 | 0.00 | 0.00 | 0.00 | 58 | 1016.8 |
| 20260505040544 | 17 | 181 | 1.6 | 1.6 | 0.00 | 0.00 | 0.00 | 58 | 1016.9 |
| 20260505040041 | 17 | 177 | 1.6 | 1.6 | 0.00 | 0.00 | 0.00 | 58 | 1016.8 |
| 20260505035537 | 17 | 176 | 0.0 | 0.0 | 0.00 | 0.00 | 0.00 | 57 | 1017.0 |
| 20260505035034 | 17 | 184 | 1.6 | 1.6 | 0.00 | 0.00 | 0.00 | 57 | 1016.9 |
| 20260505034530 | 17 | 190 | 1.6 | 3.2 | 0.00 | 0.00 | 0.00 | 57 | 1017.1 |
| 20260505034027 | 17 | 188 | 1.6 | 1.6 | 0.00 | 0.00 | 0.00 | 57 | 1017.1 |
| 20260505033524 | 17 | 188 | 0.0 | 0.0 | 0.00 | 0.00 | 0.00 | 56 | 1017.2 |
| 20260505033022 | 17 | 188 | 1.6 | 1.6 | 0.00 | 0.00 | 0.00 | 55 | 1017.2 |
| 20260505032520 | 17 | 182 | 3.2 | 3.2 | 0.00 | 0.00 | 0.00 | 55 | 1016.9 |
| 20260505032016 | 18 | 196 | 1.6 | 1.6 | 0.00 | 0.00 | 0.00 | 55 | 1017.0 |
| 20260505031514 | 18 | 204 | 1.6 | 1.6 | 0.00 | 0.00 | 0.00 | 54 | 1016.9 |
| 20260505031010 | 18 | 200 | 3.2 | 4.8 | 0.00 | 0.00 | 0.00 | 53 | 1016.9 |
| 20260505030507 | 18 | 190 | 1.6 | 1.6 | 0.00 | 0.00 | 0.00 | 53 | 1017.1 |
| 20260505030002 | 18 | 182 | 1.6 | 1.6 | 0.00 | 0.00 | 0.00 | 52 | 1017.2 |
| 20260505025459 | 18 | 203 | 1.6 | 1.6 | 0.00 | 0.00 | 0.00 | 52 | 1017.1 |
| 20260505024958 | 18 | 191 | 1.6 | 1.6 | 0.00 | 0.00 | 0.00 | 52 | 1017.0 |
| 20260505024454 | 18 | 201 | 0.0 | 0.0 | 0.00 | 0.00 | 0.00 | 52 | 1017.1 |
| 20260505023952 | 18 | 190 | 1.6 | 1.6 | 0.00 | 0.00 | 0.00 | 52 | 1017.1 |
| 20260505023448 | 18 | 184 | 1.6 | 1.6 | 0.00 | 0.00 | 0.00 | 51 | 1017.0 |
| 20260505022946 | 19 | 192 | 1.6 | 1.6 | 0.00 | 0.00 | 0.00 | 50 | 1016.9 |
| 20260505022443 | 19 | 182 | 1.6 | 1.6 | 0.00 | 0.00 | 0.00 | 50 | 1016.8 |
| 20260505021941 | 19 | 198 | 1.6 | 1.6 | 0.00 | 0.00 | 0.00 | 50 | 1016.8 |
| 20260505021437 | 19 | 198 | 3.2 | 4.8 | 0.00 | 0.00 | 0.00 | 50 | 1016.6 |
| 20260505020932 | 19 | 179 | 1.6 | 1.6 | 0.00 | 0.00 | 0.00 | 49 | 1016.7 |
| 20260505020428 | 20 | 182 | 1.6 | 1.6 | 0.00 | 0.00 | 0.00 | 48 | 1016.9 |
| 20260505015925 | 20 | 183 | 1.6 | 3.2 | 0.00 | 0.00 | 0.00 | 48 | 1016.6 |
| 20260505015422 | 20 | 187 | 3.2 | 3.2 | 0.00 | 0.00 | 0.00 | 47 | 1016.7 |
| 20260505014920 | 20 | 195 | 1.6 | 1.6 | 0.00 | 0.00 | 0.00 | 46 | 1016.6 |
| 20260505014416 | 20 | 182 | 0.0 | 0.0 | 0.00 | 0.00 | 0.00 | 45 | 1016.4 |
| 20260505013913 | 20 | 182 | 0.0 | 1.6 | 0.00 | 0.00 | 0.00 | 44 | 1016.6 |
| 20260505013410 | 20 | 185 | 1.6 | 1.6 | 0.00 | 0.00 | 0.00 | 43 | 1016.4 |
| 20260505012908 | 20 | 169 | 3.2 | 4.8 | 0.00 | 0.00 | 0.00 | 42 | 1016.2 |
| 20260505012406 | 20 | 171 | 3.2 | 3.2 | 0.00 | 0.00 | 0.00 | 41 | 1016.2 |
| 20260505011902 | 20 | 173 | 3.2 | 3.2 | 0.00 | 0.00 | 0.00 | 39 | 1016.1 |
| 20260505011359 | 20 | 192 | 1.6 | 1.6 | 0.00 | 0.00 | 0.00 | 40 | 1016.1 |
| 20260505010855 | 20 | 192 | 0.0 | 0.0 | 0.00 | 0.00 | 0.00 | 40 | 1015.8 |
| 20260505010351 | 20 | 192 | 1.6 | 1.6 | 0.00 | 0.00 | 0.00 | 40 | 1015.8 |
| 20260505005847 | 20 | 192 | 0.0 | 0.0 | 0.00 | 0.00 | 0.00 | 38 | 1015.8 |
| 20260505005344 | 21 | 192 | 0.0 | 1.6 | 0.00 | 0.00 | 0.00 | 38 | 1015.9 |
| 20260505004842 | 21 | 192 | 0.0 | 0.0 | 0.00 | 0.00 | 0.00 | 37 | 1015.6 |
| 20260505004338 | 21 | 192 | 0.0 | 0.0 | 0.00 | 0.00 | 0.00 | 37 | 1015.9 |
| 20260505003835 | 21 | 192 | 0.0 | 0.0 | 0.00 | 0.00 | 0.00 | 36 | 1015.6 |
| 20260505003332 | 21 | 192 | 1.6 | 1.6 | 0.00 | 0.00 | 0.00 | 36 | 1015.6 |
| 20260505002828 | 21 | 192 | 0.0 | 0.0 | 0.00 | 0.00 | 0.00 | 35 | 1015.5 |
| 20260505002325 | 22 | 192 | 0.0 | 1.6 | 0.00 | 0.00 | 0.00 | 35 | 1015.3 |
| 20260505001824 | 22 | 192 | 0.0 | 0.0 | 0.00 | 0.00 | 0.00 | 34 | 1015.4 |
| 20260505001320 | 22 | 192 | 0.0 | 0.0 | 0.00 | 0.00 | 0.00 | 33 | 1015.2 |
| 20260505000818 | 22 | 192 | 0.0 | 0.0 | 0.00 | 0.00 | 0.00 | 32 | 1015.2 |
| 20260505000315 | 23 | 192 | 1.6 | 1.6 | 0.00 | 0.00 | 0.00 | 31 | 1015.2 |
| 20260504235812 | 23 | 192 | 0.0 | 0.0 | 0.00 | 0.00 | 0.00 | 30 | 1015.2 |
| 20260504235309 | 23 | 192 | 1.6 | 1.6 | 0.00 | 0.00 | 0.00 | 30 | 1015.1 |
| 20260504234805 | 23 | 192 | 1.6 | 1.6 | 0.00 | 0.00 | 0.00 | 29 | 1015.1 |
| 20260504234303 | 23 | 194 | 1.6 | 1.6 | 0.00 | 0.00 | 0.00 | 29 | 1015.0 |
| 20260504233759 | 24 | 190 | 3.2 | 3.2 | 0.00 | 0.00 | 0.00 | 28 | 1015.0 |
| 20260504233255 | 24 | 218 | 3.2 | 3.2 | 0.00 | 0.00 | 0.00 | 28 | 1015.1 |
| 20260504232752 | 24 | 178 | 3.2 | 3.2 | 0.00 | 0.00 | 0.00 | 28 | 1015.0 |
| 20260504232249 | 25 | 198 | 0.0 | 0.0 | 0.00 | 0.00 | 0.00 | 27 | 1015.0 |
| 20260504231746 | 25 | 189 | 3.2 | 3.2 | 0.00 | 0.00 | 0.00 | 27 | 1015.1 |
| 20260504231242 | 25 | 174 | 1.6 | 1.6 | 0.00 | 0.00 | 0.00 | 27 | 1015.1 |
| 20260504230738 | 25 | 174 | 1.6 | 1.6 | 0.00 | 0.00 | 0.00 | 25 | 1014.9 |
| 20260504230237 | 25 | 180 | 1.6 | 1.6 | 0.00 | 0.00 | 0.00 | 25 | 1015.1 |
| 20260504225735 | 26 | 177 | 1.6 | 1.6 | 0.00 | 0.00 | 0.00 | 25 | 1015.0 |
| 20260504225231 | 26 | 169 | 1.6 | 1.6 | 0.00 | 0.00 | 0.00 | 25 | 1014.9 |
| 20260504224729 | 27 | 215 | 4.8 | 4.8 | 0.00 | 0.00 | 0.00 | 24 | 1015.0 |
| 20260504224226 | 27 | 177 | 3.2 | 4.8 | 0.00 | 0.00 | 0.00 | 24 | 1015.1 |
| 20260504223722 | 27 | 178 | 1.6 | 1.6 | 0.00 | 0.00 | 0.00 | 24 | 1014.9 |
| 20260504223218 | 27 | 207 | 3.2 | 4.8 | 0.00 | 0.00 | 0.00 | 23 | 1015.1 |
| 20260504222715 | 27 | 172 | 3.2 | 3.2 | 0.00 | 0.00 | 0.00 | 24 | 1015.0 |
| 20260504222212 | 27 | 200 | 1.6 | 1.6 | 0.00 | 0.00 | 0.00 | 24 | 1015.0 |
| 20260504221709 | 27 | 202 | 3.2 | 3.2 | 0.00 | 0.00 | 0.00 | 23 | 1014.9 |
| 20260504221206 | 29 | 202 | 8.0 | 11.3 | 0.00 | 0.00 | 0.00 | 22 | 1014.8 |
| 20260504220702 | 28 | 217 | 1.6 | 1.6 | 0.00 | 0.00 | 0.00 | 23 | 1015.1 |
| 20260504220200 | 29 | 207 | 1.6 | 3.2 | 0.00 | 0.00 | 0.00 | 22 | 1015.0 |
| 20260504215656 | 29 | 173 | 1.6 | 1.6 | 0.00 | 0.00 | 0.00 | 22 | 1015.0 |
| 20260504215154 | 30 | 180 | 4.8 | 4.8 | 0.00 | 0.00 | 0.00 | 21 | 1014.6 |
| 20260504214649 | 29 | 182 | 3.2 | 3.2 | 0.00 | 0.00 | 0.00 | 21 | 1014.8 |
| 20260504214146 | 29 | 172 | 1.6 | 1.6 | 0.00 | 0.00 | 0.00 | 21 | 1014.8 |
| 20260504213643 | 30 | 179 | 1.6 | 1.6 | 0.00 | 0.00 | 0.00 | 21 | 1014.7 |
| 20260504213139 | 30 | 190 | 1.6 | 1.6 | 0.00 | 0.00 | 0.00 | 21 | 1015.0 |
| 20260504212636 | 29 | 206 | 1.6 | 3.2 | 0.00 | 0.00 | 0.00 | 21 | 1014.8 |
| 20260504212133 | 30 | 217 | 3.2 | 3.2 | 0.00 | 0.00 | 0.00 | 21 | 1014.8 |
| 20260504211630 | 30 | 187 | 3.2 | 3.2 | 0.00 | 0.00 | 0.00 | 20 | 1014.8 |
| 20260504211126 | 30 | 175 | 1.6 | 1.6 | 0.00 | 0.00 | 0.00 | 20 | 1014.7 |
| 20260504210624 | 29 | 199 | 1.6 | 1.6 | 0.00 | 0.00 | 0.00 | 18 | 1014.9 |
| 20260504210120 | 30 | 224 | 4.8 | 4.8 | 0.00 | 0.00 | 0.00 | 18 | 1015.0 |
| 20260504205618 | 30 | 203 | 3.2 | 3.2 | 0.00 | 0.00 | 0.00 | 19 | 1014.9 |
| 20260504205115 | 30 | 201 | 0.0 | 0.0 | 0.00 | 0.00 | 0.00 | 21 | 1014.9 |
| 20260504204614 | 29 | 218 | 1.6 | 1.6 | 0.00 | 0.00 | 0.00 | 20 | 1014.9 |
| 20260504204112 | 30 | 223 | 3.2 | 3.2 | 0.00 | 0.00 | 0.00 | 18 | 1014.8 |
| 20260504203611 | 30 | 200 | 1.6 | 1.6 | 0.00 | 0.00 | 0.00 | 19 | 1015.0 |
| 20260504203108 | 30 | 226 | 3.2 | 4.8 | 0.00 | 0.00 | 0.00 | 19 | 1015.0 |
| 20260504202603 | 30 | 193 | 1.6 | 3.2 | 0.00 | 0.00 | 0.00 | 20 | 1015.1 |
| 20260504202100 | 30 | 205 | 1.6 | 1.6 | 0.00 | 0.00 | 0.00 | 21 | 1015.2 |
| 20260504201556 | 30 | 193 | 3.2 | 4.8 | 0.00 | 0.00 | 0.00 | 20 | 1015.3 |
| 20260504201055 | 30 | 238 | 4.8 | 4.8 | 0.00 | 0.00 | 0.00 | 19 | 1015.2 |
| 20260504200550 | 30 | 141 | 0.0 | 0.0 | 0.00 | 0.00 | 0.00 | 21 | 1015.4 |
| 20260504200048 | 30 | 176 | 1.6 | 1.6 | 0.00 | 0.00 | 0.00 | 20 | 1015.4 |
| 20260504195544 | 30 | 231 | 1.6 | 3.2 | 0.00 | 0.00 | 0.00 | 19 | 1015.5 |
| 20260504195040 | 30 | 1 | 3.2 | 4.8 | 0.00 | 0.00 | 0.00 | 19 | 1015.5 |
| 20260504194537 | 30 | 232 | 3.2 | 3.2 | 0.00 | 0.00 | 0.00 | 19 | 1015.5 |
| 20260504194032 | 30 | 167 | 4.8 | 9.7 | 0.00 | 0.00 | 0.00 | 20 | 1015.7 |
| 20260504193529 | 30 | 285 | 3.2 | 4.8 | 0.00 | 0.00 | 0.00 | 19 | 1015.7 |
| 20260504193028 | 30 | 188 | 1.6 | 1.6 | 0.00 | 0.00 | 0.00 | 21 | 1015.7 |
| 20260504192526 | 29 | 213 | 1.6 | 1.6 | 0.00 | 0.00 | 0.00 | 23 | 1016.0 |
| 20260504192024 | 30 | 236 | 4.8 | 4.8 | 0.00 | 0.00 | 0.00 | 22 | 1015.8 |
| 20260504191521 | 30 | 184 | 1.6 | 3.2 | 0.00 | 0.00 | 0.00 | 21 | 1015.9 |
| 20260504191017 | 29 | 194 | 1.6 | 1.6 | 0.00 | 0.00 | 0.00 | 22 | 1016.0 |
| 20260504190513 | 28 | 229 | 3.2 | 3.2 | 0.00 | 0.00 | 0.00 | 22 | 1016.0 |
| 20260504190010 | 27 | 204 | 3.2 | 3.2 | 0.00 | 0.00 | 0.00 | 23 | 1016.1 |
| 20260504185507 | 28 | 244 | 6.4 | 9.7 | 0.00 | 0.00 | 0.00 | 20 | 1016.3 |
| 20260504185003 | 28 | 15 | 3.2 | 4.8 | 0.00 | 0.00 | 0.00 | 22 | 1016.2 |
| 20260504184458 | 28 | 232 | 0.0 | 0.0 | 0.00 | 0.00 | 0.00 | 23 | 1016.5 |
| 20260504183954 | 28 | 218 | 3.2 | 3.2 | 0.00 | 0.00 | 0.00 | 23 | 1016.6 |
| 20260504183452 | 28 | 242 | 3.2 | 3.2 | 0.00 | 0.00 | 0.00 | 21 | 1016.5 |
| 20260504182950 | 28 | 208 | 1.6 | 1.6 | 0.00 | 0.00 | 0.00 | 21 | 1016.6 |
| 20260504182446 | 28 | 77 | 1.6 | 1.6 | 0.00 | 0.00 | 0.00 | 20 | 1016.7 |
| 20260504181944 | 28 | 274 | 6.4 | 11.3 | 0.00 | 0.00 | 0.00 | 21 | 1016.8 |
| 20260504181441 | 27 | 198 | 1.6 | 1.6 | 0.00 | 0.00 | 0.00 | 22 | 1016.8 |
| 20260504180939 | 27 | 278 | 3.2 | 3.2 | 0.00 | 0.00 | 0.00 | 22 | 1016.8 |
| 20260504180438 | 27 | 213 | 1.6 | 3.2 | 0.00 | 0.00 | 0.00 | 22 | 1016.9 |
| 20260504175936 | 27 | 206 | 1.6 | 3.2 | 0.00 | 0.00 | 0.00 | 22 | 1016.9 |
| 20260504175432 | 27 | 209 | 1.6 | 1.6 | 0.00 | 0.00 | 0.00 | 24 | 1017.0 |
| 20260504174930 | 27 | 197 | 1.6 | 3.2 | 0.00 | 0.00 | 0.00 | 24 | 1017.0 |
| 20260504174427 | 27 | 188 | 1.6 | 1.6 | 0.00 | 0.00 | 0.00 | 23 | 1017.0 |
| 20260504173925 | 26 | 341 | 4.8 | 6.4 | 0.00 | 0.00 | 0.00 | 23 | 1017.1 |
| 20260504173421 | 26 | 215 | 3.2 | 3.2 | 0.00 | 0.00 | 0.00 | 25 | 1017.3 |
| 20260504172919 | 26 | 215 | 1.6 | 1.6 | 0.00 | 0.00 | 0.00 | 24 | 1017.2 |
| 20260504172414 | 26 | 38 | 0.0 | 0.0 | 0.00 | 0.00 | 0.00 | 26 | 1017.0 |
| 20260504171911 | 25 | 62 | 3.2 | 4.8 | 0.00 | 0.00 | 0.00 | 23 | 1017.3 |
| 20260504171408 | 26 | 255 | 1.6 | 1.6 | 0.00 | 0.00 | 0.00 | 25 | 1017.4 |
| 20260504170905 | 25 | 178 | 0.0 | 1.6 | 0.00 | 0.00 | 0.00 | 26 | 1017.5 |
| 20260504170401 | 25 | 240 | 1.6 | 1.6 | 0.00 | 0.00 | 0.00 | 25 | 1017.4 |
| 20260504160320 | 24 | 155 | 1.6 | 1.6 | 0.00 | 0.00 | 0.00 | 28 | 1018.1 |
| 20260504150745 | 22 | 126 | 1.6 | 1.6 | 0.00 | 0.00 | 0.00 | 35 | 1018.4 |
| 20260504150242 | 22 | 234 | 3.2 | 4.8 | 0.00 | 0.00 | 0.00 | 34 | 1018.5 |
| 20260504141211 | 21 | 128 | 0.0 | 0.0 | 0.00 | 0.00 | 0.00 | 42 | 1018.3 |
| 20260504140709 | 20 | 166 | 3.2 | 3.2 | 0.00 | 0.00 | 0.00 | 42 | 1018.4 |
| 20260504140209 | 20 | 219 | 1.6 | 1.6 | 0.00 | 0.00 | 0.00 | 44 | 1018.3 |